Flag for Spain

Past Weather in 27°46'57.7"N, 17°54'05.0"W, Spain — Yesterday and Last 2 Weeks

Currently: 72 °F. Passing clouds. (Weather station: Hierro / Aeropuerto, Spain). See more current weather

Past Weather in 27°46'57.7"N, 17°54'05.0"W — Graph

°F

27°46'57.7"N, 17°54'05.0"W Temperature Yesterday

Maximum temperature yesterday: 73 °F (at 2:30 pm)
Minimum temperature yesterday: 66 °F (at 5:00 am)
Average temperature yesterday: 70 °F

High & Low Weather Summary for the Past Weeks

 TemperatureHumidityPressure
High77 °F (May 7, 3:30 pm)88% (May 7, 3:30 am)30.12 "Hg (May 7, 3:30 am)
Low64 °F (May 16, 8:30 am)53% (May 15, 10:30 am)29.89 "Hg (May 8, 6:30 am)
Average70 °F73%30.03 "Hg
* Reported May 3 5:00 pm — May 18 5:30 pm, 27°46'57.7"N, 17°54'05.0"W. Weather by CustomWeather, © 2024

Note: Actual official high and low records may vary slightly from our data, if they occured in-between our weather recording intervals... More about our weather records

27°46'57.7"N, 17°54'05.0"W Weather History for the Previous 24 Hours

Scroll right to see more
 ConditionsComfort  
Time TempWeatherWind HumidityBarometerVisibility
5:30 pm
Sat, May 18
73 °FPassing clouds.10 mph65%30.04 "HgN/A
5:00 pm73 °FPassing clouds.10 mph65%30.04 "HgN/A
4:30 pm75 °FPassing clouds.10 mph61%30.04 "HgN/A
4:00 pm75 °FPassing clouds.10 mph61%30.04 "HgN/A
3:00 pm73 °FPassing clouds.9 mph65%30.07 "HgN/A
2:30 pm75 °FPassing clouds.9 mph61%30.07 "HgN/A
2:00 pm75 °FPassing clouds.9 mph61%30.07 "HgN/A
1:30 pm75 °FPassing clouds.9 mph61%30.07 "HgN/A
1:00 pm75 °FPassing clouds.8 mph61%30.07 "HgN/A
12:30 pm73 °FPartly sunny.7 mph65%30.07 "HgN/A
12:00 pm72 °FBroken clouds.8 mph73%30.07 "HgN/A
11:30 am72 °FBroken clouds.7 mph69%30.07 "HgN/A
11:00 am72 °FScattered clouds.7 mph65%30.07 "HgN/A
10:30 am72 °FScattered clouds.7 mph69%30.07 "HgN/A
10:00 am72 °FScattered clouds.7 mph69%30.07 "HgN/A
9:30 am72 °FScattered clouds.7 mph69%30.04 "HgN/A
9:00 am70 °FScattered clouds.7 mph78%30.07 "HgN/A
8:00 am68 °FScattered clouds.12 mph78%30.04 "HgN/A
7:30 am68 °FBroken clouds.7 mph78%30.04 "HgN/A
7:00 am68 °FPassing clouds.6 mph78%30.04 "HgN/A
6:30 am68 °FPassing clouds.9 mph78%30.01 "HgN/A
6:00 am68 °FPassing clouds.10 mph78%30.01 "HgN/A
5:30 am68 °FPassing clouds.10 mph78%30.01 "HgN/A
5:00 am70 °FPassing clouds.9 mph73%30.01 "HgN/A
4:30 am70 °FPassing clouds.9 mph73%30.01 "HgN/A
4:00 am70 °FPartly cloudy.12 mph73%30.01 "HgN/A
3:30 am70 °FPassing clouds.13 mph73%30.01 "HgN/A
3:00 am68 °FPassing clouds.15 mph83%30.01 "HgN/A
2:00 am68 °FPassing clouds.10 mph83%30.04 "HgN/A
1:30 am70 °FPassing clouds.9 mph78%30.04 "HgN/A
1:00 am70 °FPartly cloudy.10 mph73%30.07 "HgN/A
12:30 am68 °FPartly cloudy.9 mph83%30.07 "HgN/A
12:00 am68 °FPartly cloudy.12 mph83%30.07 "HgN/A
11:30 pm
Fri, May 17
70 °FPassing clouds.12 mph78%30.07 "HgN/A
11:00 pm70 °FPartly cloudy.12 mph73%30.07 "HgN/A
10:30 pm70 °FPassing clouds.12 mph73%30.04 "HgN/A
10:00 pm70 °FPassing clouds.12 mph78%30.04 "HgN/A
9:30 pm70 °FOvercast.15 mph73%30.04 "HgN/A
9:00 pm68 °FPassing clouds.17 mph78%30.04 "HgN/A
8:30 pm70 °FBroken clouds.16 mph73%30.04 "HgN/A
8:00 pm70 °FPassing clouds.16 mph73%30.04 "HgN/A
7:30 pm72 °FPassing clouds.13 mph69%30.01 "HgN/A
7:00 pm72 °FPassing clouds.13 mph73%30.04 "HgN/A
6:30 pm70 °FBroken clouds.17 mph73%30.04 "HgN/A
6:00 pm72 °FScattered clouds.12 mph73%30.04 "HgN/A
Weather by CustomWeather, © 2024

See weather overview